GW2922 Weather Reports


time (UTC)temp
C
wind
direction
speed
KPH
gust
KPH
rain 1hr
cm
rain 24hr
cm
rain mn
cm
humidity
%
barometer
mb
20260508030942 11 253 0.0 1.6 0.00 0.00 0.00 79 1019.6
20260508030440 11 51 1.6 3.2 0.00 0.00 0.00 79 1019.6
20260508025937 11 138 1.6 3.2 0.00 0.00 0.00 79 1019.6
20260508025433 11 6 1.6 6.4 0.00 0.00 0.00 79 1019.9
20260508024931 11 69 1.6 4.8 0.00 0.00 0.00 78 1019.9
20260508024427 11 345 1.6 4.8 0.00 0.00 0.00 78 1019.9
20260508023923 11 118 1.6 3.2 0.00 0.00 0.00 78 1019.9
20260508023420 12 81 0.0 1.6 0.00 0.00 0.00 78 1019.9
20260508022918 12 105 0.0 4.8 0.00 0.00 0.00 78 1019.9
20260508022413 12 342 3.2 3.2 0.00 0.00 0.00 78 1019.9
20260508021910 12 92 0.0 3.2 0.00 0.00 0.00 78 1019.9
20260508021406 12 96 0.0 6.4 0.00 0.00 0.00 77 1019.9
20260508020902 12 91 0.0 3.2 0.00 0.00 0.00 77 1019.9
20260508020400 12 339 1.6 3.2 0.00 0.00 0.00 77 1020.2
20260508015857 12 82 1.6 6.4 0.00 0.00 0.00 77 1019.9
20260508015355 13 108 1.6 12.9 0.00 0.00 0.00 75 1019.9
20260508014851 14 60 4.8 9.7 0.00 0.00 0.00 71 1019.9
20260508014348 15 77 3.2 3.2 0.00 0.00 0.00 68 1019.9
20260508013843 15 257 1.6 6.4 0.00 0.00 0.00 67 1020.2
20260508013340 16 84 1.6 3.2 0.00 0.00 0.00 64 1020.2
20260508012837 16 280 1.6 3.2 0.00 0.00 0.00 62 1020.2
20260508012335 16 130 0.0 3.2 0.00 0.00 0.00 64 1019.9
20260508011832 16 97 1.6 3.2 0.00 0.00 0.00 63 1020.2
20260508011329 16 117 0.0 1.6 0.00 0.00 0.00 62 1020.2
20260508010821 16 61 3.2 6.4 0.00 0.00 0.00 63 1020.2
20260508010319 17 77 1.6 1.6 0.00 0.00 0.00 62 1020.2
20260508005816 17 105 0.0 3.2 0.00 0.00 0.00 61 1020.2
20260508005313 17 113 0.0 3.2 0.00 0.00 0.00 61 1020.2
20260508004809 17 96 1.6 3.2 0.00 0.00 0.00 61 1020.2
20260508004305 16 114 0.0 3.2 0.00 0.00 0.00 63 1020.2
20260508003801 16 88 1.6 1.6 0.00 0.00 0.00 62 1020.2
20260508003259 16 113 3.2 3.2 0.00 0.00 0.00 62 1020.2
20260508002755 16 111 0.0 3.2 0.00 0.00 0.00 62 1020.2
20260508002252 16 104 0.0 1.6 0.00 0.00 0.00 60 1020.2
20260508001748 17 98 0.0 3.2 0.00 0.00 0.00 60 1020.2
20260508001244 17 114 1.6 3.2 0.00 0.00 0.00 61 1020.2
20260508000741 17 128 3.2 3.2 0.00 0.00 0.00 60 1020.6
20260508000238 17 145 3.2 6.4 0.00 0.00 0.00 60 1020.2
20260507235734 16 83 1.6 3.2 0.00 0.00 0.00 61 1020.2
20260507235232 17 80 1.6 3.2 0.00 0.00 0.00 61 1020.6
20260507234728 17 108 0.0 3.2 0.00 0.00 0.00 61 1020.2
20260507234225 17 207 6.4 6.4 0.00 0.00 0.00 60 1020.2
20260507233721 17 172 6.4 9.7 0.00 0.00 0.00 60 1020.2
20260507233220 17 155 4.8 9.7 0.00 0.00 0.00 60 1020.2
20260507232716 17 150 0.0 3.2 0.00 0.00 0.00 60 1020.6
20260507232214 17 66 1.6 3.2 0.00 0.00 0.00 61 1020.6
20260507231710 16 114 1.6 3.2 0.00 0.00 0.00 62 1020.6
20260507231207 16 116 3.2 3.2 0.00 0.00 0.00 62 1020.6
20260507230703 16 112 1.6 3.2 0.00 0.00 0.00 61 1020.6
20260507230200 17 96 1.6 12.9 0.00 0.00 0.00 59 1020.6
20260507225655 17 111 3.2 4.8 0.00 0.00 0.00 59 1020.9
20260507225152 17 109 0.0 1.6 0.00 0.00 0.00 58 1020.9
20260507224647 18 106 1.6 4.8 0.00 0.00 0.00 58 1020.6
20260507224144 17 107 3.2 4.8 0.00 0.00 0.00 59 1020.9
20260507223640 18 110 3.2 4.8 0.00 0.00 0.00 57 1020.9
20260507223137 17 67 1.6 6.4 0.00 0.00 0.00 59 1020.9
20260507222634 17 194 1.6 9.7 0.00 0.00 0.00 59 1020.9
20260507222130 17 142 3.2 3.2 0.00 0.00 0.00 59 1020.9
20260507221626 17 82 1.6 6.4 0.00 0.00 0.00 60 1020.9
20260507221123 16 97 1.6 4.8 0.00 0.00 0.00 61 1021.3
20260507220620 17 108 6.4 9.7 0.00 0.00 0.00 58 1021.3
20260507220118 17 113 3.2 11.3 0.00 0.00 0.00 59 1021.3
20260507215614 17 103 1.6 4.8 0.00 0.00 0.00 61 1021.3
20260507215112 17 103 1.6 4.8 0.00 0.00 0.00 59 1021.3
20260507214609 17 90 1.6 3.2 0.00 0.00 0.00 59 1021.6
20260507214105 17 77 1.6 4.8 0.00 0.00 0.00 59 1021.3
20260507213601 17 94 3.2 4.8 0.00 0.00 0.00 58 1021.3
20260507213059 17 92 3.2 6.4 0.00 0.00 0.00 59 1021.3
20260507212554 17 126 3.2 6.4 0.00 0.00 0.00 59 1021.6
20260507212051 16 135 1.6 4.8 0.00 0.00 0.00 61 1021.6
20260507211548 16 177 4.8 11.3 0.00 0.00 0.00 62 1021.9
20260507211044 16 96 0.0 4.8 0.00 0.00 0.00 61 1021.6
20260507210542 16 113 3.2 11.3 0.00 0.00 0.00 62 1021.6
20260507210038 16 89 1.6 9.7 0.00 0.00 0.00 63 1021.9
20260507205535 17 195 8.0 11.3 0.00 0.00 0.00 60 1021.9
20260507205031 16 85 6.4 12.9 0.00 0.00 0.00 61 1021.9
20260507204527 15 89 8.0 11.3 0.00 0.00 0.00 65 1021.9
20260507204025 16 124 3.2 12.9 0.00 0.00 0.00 64 1021.9
20260507203523 16 116 4.8 9.7 0.00 0.00 0.00 62 1022.3
20260507203020 16 131 1.6 3.2 0.00 0.00 0.00 64 1022.3
20260507202516 16 117 0.0 4.8 0.00 0.00 0.00 63 1022.3
20260507202012 16 113 1.6 3.2 0.00 0.00 0.00 63 1022.3
20260507201508 16 103 3.2 14.5 0.00 0.00 0.00 62 1022.3
20260507201004 16 105 1.6 9.7 0.00 0.00 0.00 64 1022.3
20260507200500 16 105 3.2 11.3 0.00 0.00 0.00 62 1022.3
20260507195955 15 112 0.0 3.2 0.00 0.00 0.00 65 1022.3
20260507195453 17 62 3.2 4.8 0.00 0.00 0.00 61 1022.3
20260507194951 16 75 1.6 4.8 0.00 0.00 0.00 62 1022.3
20260507194447 15 86 0.0 9.7 0.00 0.00 0.00 67 1022.3
20260507193943 15 98 1.6 3.2 0.00 0.00 0.00 64 1022.3
20260507193440 15 84 1.6 3.2 0.00 0.00 0.00 64 1022.3
20260507192937 16 56 1.6 6.4 0.00 0.00 0.00 64 1022.3
20260507192433 15 163 1.6 6.4 0.00 0.00 0.00 65 1022.3
20260507191930 16 96 3.2 3.2 0.00 0.00 0.00 63 1022.6
20260507191426 15 85 0.0 6.4 0.00 0.00 0.00 66 1022.3
20260507190923 16 104 1.6 4.8 0.00 0.00 0.00 64 1022.3
20260507190421 16 80 1.6 6.4 0.00 0.00 0.00 63 1022.3
20260507185920 16 103 1.6 3.2 0.00 0.00 0.00 63 1022.6
20260507185416 15 101 1.6 4.8 0.00 0.00 0.00 68 1022.6
20260507184913 14 71 3.2 3.2 0.00 0.00 0.00 67 1022.6
20260507184411 15 79 6.4 6.4 0.00 0.00 0.00 65 1022.6
20260507183908 15 120 0.0 3.2 0.00 0.00 0.00 66 1022.6
20260507183405 15 116 0.0 3.2 0.00 0.00 0.00 67 1022.6
20260507182903 15 184 4.8 6.4 0.00 0.00 0.00 67 1022.6
20260507182358 15 125 3.2 9.7 0.00 0.00 0.00 66 1022.6
20260507181855 13 97 1.6 3.2 0.00 0.00 0.00 69 1022.6
20260507181350 15 77 6.4 9.7 0.00 0.00 0.00 68 1022.6
20260507180848 15 54 3.2 4.8 0.00 0.00 0.00 67 1022.6
20260507180344 15 99 3.2 3.2 0.00 0.00 0.00 66 1022.6
20260507175840 15 114 0.0 3.2 0.00 0.00 0.00 67 1022.6
20260507175337 13 179 0.0 1.6 0.00 0.00 0.00 68 1022.6
20260507174835 15 77 3.2 4.8 0.00 0.00 0.00 65 1022.9
20260507174332 13 100 1.6 1.6 0.00 0.00 0.00 68 1022.9
20260507173829 13 83 3.2 4.8 0.00 0.00 0.00 69 1022.6
20260507173326 13 44 3.2 4.8 0.00 0.00 0.00 68 1022.6
20260507172822 13 108 6.4 12.9 0.00 0.00 0.00 72 1022.6
20260507172319 13 144 4.8 6.4 0.00 0.00 0.00 71 1022.6
20260507171815 13 172 8.0 9.7 0.00 0.00 0.00 70 1022.6
20260507171312 13 201 3.2 4.8 0.00 0.00 0.00 71 1022.3
20260507170809 12 104 0.0 4.8 0.00 0.00 0.00 73 1022.6
20260507170306 13 65 0.0 1.6 0.00 0.00 0.00 72 1022.6
20260507165801 12 180 4.8 6.4 0.00 0.00 0.00 72 1022.3
20260507165258 12 84 1.6 3.2 0.00 0.00 0.00 74 1022.6
20260507164754 12 96 0.0 1.6 0.00 0.00 0.00 74 1022.6
20260507164251 12 112 0.0 1.6 0.00 0.00 0.00 74 1022.6
20260507163748 12 76 0.0 1.6 0.00 0.00 0.00 75 1022.6
20260507163246 11 115 0.0 1.6 0.00 0.00 0.00 77 1022.6
20260507162742 11 53 6.4 6.4 0.00 0.00 0.00 76 1022.6
20260507162238 11 93 0.0 0.0 0.00 0.00 0.00 76 1022.6
20260507161735 11 172 0.0 3.2 0.00 0.00 0.00 77 1022.6
20260507161231 11 250 1.6 3.2 0.00 0.00 0.00 77 1022.6
20260507160727 11 341 3.2 6.4 0.00 0.00 0.00 76 1022.6
20260507160224 11 354 0.0 1.6 0.00 0.00 0.00 76 1022.6
20260507155720 11 353 3.2 4.8 0.00 0.00 0.00 75 1022.9
20260507155216 11 102 0.0 3.2 0.00 0.00 0.00 76 1022.6
20260507154712 11 349 3.2 6.4 0.00 0.00 0.00 76 1022.9
20260507154211 11 18 1.6 3.2 0.00 0.00 0.00 76 1022.9
20260507153707 11 100 0.0 3.2 0.00 0.00 0.00 76 1022.6
20260507153203 11 113 0.0 1.6 0.00 0.00 0.00 77 1022.9
20260507152700 10 95 0.0 1.6 0.00 0.00 0.00 77 1022.9
20260507152156 10 102 0.0 1.6 0.00 0.00 0.00 77 1022.9
20260507151652 10 68 1.6 3.2 0.00 0.00 0.00 78 1022.9
20260507151149 10 100 0.0 0.0 0.00 0.00 0.00 78 1022.9
20260507150646 10 111 0.0 1.6 0.00 0.00 0.00 78 1022.6
20260507150143 10 98 0.0 0.0 0.00 0.00 0.00 78 1022.9
20260507145638 10 87 1.6 1.6 0.00 0.00 0.00 78 1022.6
20260507145135 10 106 0.0 0.0 0.00 0.00 0.00 78 1022.6
20260507144631 10 113 1.6 4.8 0.00 0.00 0.00 78 1022.6
20260507144130 10 137 0.0 1.6 0.00 0.00 0.00 78 1022.3
20260507143626 10 158 1.6 4.8 0.00 0.00 0.00 78 1022.6
20260507143123 10 85 1.6 3.2 0.00 0.00 0.00 79 1022.3
20260507142619 10 343 0.0 3.2 0.00 0.00 0.00 79 1022.6
20260507142116 10 10 1.6 1.6 0.00 0.00 0.00 80 1022.6
20260507141612 10 154 0.0 1.6 0.00 0.00 0.00 80 1022.6
20260507141109 10 92 1.6 1.6 0.00 0.00 0.00 80 1022.3
20260507140605 10 111 0.0 0.0 0.00 0.00 0.00 81 1022.6
20260507135559 9 91 0.0 1.6 0.00 0.00 0.00 81 1022.6
20260507135051 9 91 0.0 0.0 0.00 0.00 0.00 80 1022.6
20260507134548 9 92 0.0 0.0 0.00 0.00 0.00 81 1022.3
20260507134043 9 43 0.0 1.6 0.00 0.00 0.00 81 1022.6
20260507133540 9 113 0.0 1.6 0.00 0.00 0.00 81 1022.6
20260507133038 9 94 0.0 3.2 0.00 0.00 0.00 81 1022.3
20260507132534 9 110 0.0 1.6 0.00 0.00 0.00 81 1022.6
20260507132031 9 111 0.0 0.0 0.00 0.00 0.00 82 1022.6
20260507131528 9 41 1.6 1.6 0.00 0.00 0.00 82 1022.6
20260507131025 8 356 4.8 4.8 0.00 0.00 0.00 82 1022.6
20260507130522 9 324 1.6 3.2 0.00 0.00 0.00 82 1022.6
20260507130020 9 91 0.0 4.8 0.00 0.00 0.00 82 1022.6
20260507125518 8 2 4.8 6.4 0.00 0.00 0.00 82 1022.6
20260507125015 9 142 1.6 3.2 0.00 0.00 0.00 83 1022.6
20260507124512 9 85 0.0 1.6 0.00 0.00 0.00 83 1022.6
20260507124010 9 89 1.6 4.8 0.00 0.00 0.00 83 1022.6
20260507123508 9 75 1.6 4.8 0.00 0.00 0.00 83 1022.6
20260507123004 9 327 0.0 1.6 0.00 0.00 0.00 83 1022.6
20260507122459 9 324 1.6 1.6 0.00 0.00 0.00 82 1022.6
20260507121955 9 324 1.6 4.8 0.00 0.00 0.00 82 1022.9
20260507121451 9 333 1.6 4.8 0.00 0.00 0.00 82 1022.6
20260507120947 9 98 1.6 1.6 0.00 0.00 0.00 82 1022.9
20260507120443 9 115 0.0 3.2 0.00 0.00 0.00 82 1022.9
20260507115940 9 105 0.0 1.6 0.00 0.00 0.00 82 1022.9
20260507115436 9 23 1.6 6.4 0.00 0.00 0.00 82 1022.9
20260507114932 9 35 0.0 1.6 0.00 0.00 0.00 83 1022.9
20260507114428 9 102 0.0 4.8 0.00 0.00 0.00 83 1022.9
20260507113926 9 357 1.6 4.8 0.00 0.00 0.00 83 1022.9
20260507113423 9 16 0.0 3.2 0.00 0.00 0.00 83 1022.9
20260507112921 9 356 3.2 3.2 0.00 0.00 0.00 83 1022.9
20260507112418 9 118 0.0 1.6 0.00 0.00 0.00 83 1022.9
20260507111915 9 14 1.6 3.2 0.00 0.00 0.00 83 1022.9
20260507111412 9 94 1.6 4.8 0.00 0.00 0.00 84 1022.9
20260507110908 9 34 0.0 3.2 0.00 0.00 0.00 84 1022.9
20260507110404 9 320 0.0 4.8 0.00 0.00 0.00 84 1022.9
20260507105901 9 96 0.0 3.2 0.00 0.00 0.00 84 1022.9
20260507105358 9 116 1.6 3.2 0.00 0.00 0.00 84 1022.9
20260507104855 9 151 1.6 4.8 0.00 0.00 0.00 84 1022.9
20260507104351 9 88 0.0 1.6 0.00 0.00 0.00 84 1022.9
20260507103848 9 313 1.6 3.2 0.00 0.00 0.00 84 1022.9
20260507103344 9 345 1.6 6.4 0.00 0.00 0.00 84 1022.9
20260507102841 10 110 0.0 3.2 0.00 0.00 0.00 84 1022.9
20260507102337 10 104 1.6 4.8 0.00 0.00 0.00 84 1022.9
20260507101833 10 110 0.0 1.6 0.00 0.00 0.00 84 1022.9
20260507101328 9 99 1.6 9.7 0.00 0.00 0.00 85 1022.9
20260507100825 9 93 0.0 3.2 0.00 0.00 0.00 85 1022.9
20260507100323 9 110 0.0 1.6 0.00 0.00 0.00 85 1022.9
20260507095821 9 107 0.0 1.6 0.00 0.00 0.00 85 1022.9
20260507095317 9 102 1.6 3.2 0.00 0.00 0.00 85 1022.9
20260507094815 9 38 1.6 3.2 0.00 0.00 0.00 85 1022.9
20260507094311 9 113 0.0 4.8 0.00 0.00 0.00 85 1022.9
20260507093808 9 272 1.6 3.2 0.00 0.00 0.00 85 1022.6
20260507093307 10 67 1.6 3.2 0.00 0.00 0.00 85 1022.9
20260507092804 10 188 1.6 3.2 0.00 0.00 0.00 84 1022.9
20260507092300 10 171 1.6 3.2 0.00 0.00 0.00 84 1022.9
20260507091757 10 184 0.0 6.4 0.00 0.00 0.00 84 1022.9
20260507091254 10 189 1.6 1.6 0.00 0.00 0.00 84 1022.9
20260507090754 10 76 0.0 3.2 0.00 0.00 0.00 84 1023.3
20260507090250 10 285 0.0 3.2 0.00 0.00 0.00 84 1022.9
20260507085747 10 282 4.8 6.4 0.00 0.00 0.00 84 1023.3
20260507085244 10 119 0.0 1.6 0.00 0.00 0.00 84 1023.3
20260507084741 10 99 0.0 1.6 0.00 0.00 0.00 84 1023.3
20260507084237 10 97 0.0 3.2 0.00 0.00 0.00 84 1023.3
20260507083735 10 92 3.2 4.8 0.00 0.00 0.00 84 1023.3
20260507083231 10 354 3.2 4.8 0.00 0.00 0.00 85 1023.3
20260507082728 10 8 3.2 3.2 0.00 0.00 0.00 85 1023.3
20260507082223 10 104 1.6 3.2 0.00 0.00 0.00 86 1023.3
20260507081720 10 22 1.6 1.6 0.00 0.00 0.00 86 1023.3
20260507081216 10 306 6.4 11.3 0.00 0.00 0.00 86 1022.9
20260507080713 10 22 3.2 4.8 0.00 0.00 0.00 86 1023.3
20260507080209 10 337 4.8 6.4 0.00 0.00 0.00 85 1022.9
20260507075705 10 322 1.6 3.2 0.00 0.00 0.00 85 1023.3
20260507075201 10 108 0.0 3.2 0.00 0.00 0.00 85 1022.9
20260507074658 10 89 0.0 1.6 0.00 0.00 0.00 85 1022.9
20260507074157 10 76 1.6 3.2 0.00 0.00 0.00 85 1022.9
20260507073653 10 92 1.6 4.8 0.00 0.00 0.00 85 1022.9
20260507073149 10 324 1.6 3.2 0.00 0.00 0.00 85 1022.9
20260507072647 10 86 0.0 1.6 0.00 0.00 0.00 85 1022.9
20260507072144 10 4 3.2 3.2 0.00 0.00 0.00 85 1022.9
20260507071642 10 93 0.0 1.6 0.00 0.00 0.00 85 1022.9
20260507071138 10 79 1.6 3.2 0.00 0.00 0.00 85 1022.9
20260507070635 10 96 0.0 3.2 0.00 0.00 0.00 85 1022.9
20260507070132 10 83 0.0 4.8 0.00 0.00 0.00 85 1022.9
20260507065628 10 88 0.0 1.6 0.00 0.03 0.03 86 1022.9
20260507065125 10 101 0.0 0.0 0.00 0.03 0.03 86 1022.9
20260507064623 10 164 0.0 1.6 0.00 0.03 0.03 86 1022.6
20260507064121 10 90 0.0 1.6 0.00 0.03 0.03 86 1022.9
20260507063619 10 160 0.0 0.0 0.00 0.03 0.03 86 1022.9
20260507063115 10 320 1.6 1.6 0.00 0.03 0.03 86 1022.9
20260507062611 10 125 1.6 3.2 0.00 0.03 0.03 86 1022.9
20260507062109 10 222 0.0 1.6 0.00 0.03 0.03 87 1022.9
20260507061607 10 107 0.0 1.6 0.00 0.03 0.03 87 1022.9
20260507061105 10 144 0.0 3.2 0.00 0.03 0.03 87 1022.9
20260507060603 10 59 3.2 3.2 0.00 0.03 0.03 87 1022.9
20260507060059 10 94 0.0 0.0 0.00 0.03 0.03 88 1022.9
20260507055554 10 95 0.0 0.0 0.00 0.03 0.03 88 1022.9
20260507055051 10 98 0.0 1.6 0.00 0.03 0.03 88 1023.3
20260507054547 10 105 0.0 1.6 0.00 0.03 0.03 89 1022.9
20260507054044 10 115 1.6 3.2 0.00 0.03 0.03 89 1022.9
20260507053542 10 197 0.0 3.2 0.00 0.03 0.03 90 1022.9
20260507053041 10 30 1.6 1.6 0.00 0.03 0.03 90 1022.9
20260507052538 10 160 0.0 1.6 0.00 0.03 0.03 90 1023.3
20260507052034 10 124 0.0 0.0 0.00 0.03 0.03 90 1022.9
20260507051532 10 130 0.0 1.6 0.00 0.03 0.03 90 1022.9
20260507051029 10 122 0.0 1.6 0.00 0.03 0.03 90 1023.3
20260507050525 10 105 0.0 0.0 0.00 0.03 0.03 90 1023.3
20260507050022 10 103 0.0 0.0 0.00 0.03 0.03 90 1022.9
20260507045518 10 101 0.0 0.0 0.00 0.03 0.03 89 1023.3
20260507045016 10 101 0.0 1.6 0.00 0.03 0.03 89 1023.3
20260507044512 10 114 1.6 1.6 0.00 0.03 0.03 89 1023.3
20260507044009 10 100 0.0 1.6 0.00 0.03 0.03 89 1023.3
20260507043505 10 214 0.0 1.6 0.00 0.03 0.03 88 1023.3
20260507043002 10 214 0.0 1.6 0.00 0.03 0.03 88 1022.9
20260507042458 10 72 0.0 1.6 0.00 0.03 0.03 88 1022.9
20260507041954 10 72 0.0 0.0 0.00 0.03 0.03 88 1022.9
20260507041451 10 42 0.0 0.0 0.00 0.03 0.03 87 1023.3
20260507040948 11 42 0.0 3.2 0.00 0.03 0.03 87 1022.9
20260507040444 11 114 0.0 1.6 0.00 0.03 0.03 86 1022.9
20260507035940 11 201 0.0 3.2 0.00 0.03 0.03 86 1022.9
20260507035437 11 127 0.0 1.6 0.00 0.03 0.03 85 1022.9
20260507034933 11 129 0.0 1.6 0.00 0.03 0.03 84 1022.9
20260507034430 11 33 0.0 3.2 0.00 0.03 0.03 84 1022.9
20260507033928 11 34 0.0 3.2 0.00 0.03 0.03 84 1022.9
20260507033426 11 177 1.6 1.6 0.00 0.03 0.03 84 1022.9
20260507032922 11 106 0.0 3.2 0.00 0.03 0.03 84 1022.9
20260507032420 11 267 3.2 3.2 0.00 0.03 0.03 84 1022.9
20260507031915 11 101 0.0 1.6 0.00 0.03 0.03 84 1022.9
20260507031412 12 16 0.0 1.6 0.00 0.03 0.03 83 1022.9